This demonstration page uses our WeatherBlox Daily Observations layout. Learn more.

Left ArrowRight Arrow

44.8408, -93.29828

Hourly Observations for May 22, 2021

Temp ( °F °C ) Dew Point ( °F °C ) Humidity (%) Winds ( mph kmh ) Pressure ( in mb ) Visibility ( mi km ) Precip ( " mm )
12:53 am 00:53 Mostly Clear 72 22.2 66 18.9 82 82 S 10 17 30.17 1022 10 16 0.00 0.00
1:53 am 01:53 Clear 70 21.1 65 18.3 84 84 S 9 15 30.19 1022 10 16 0.00 0.00
2:53 am 02:53 Clear 69 20.6 65 18.3 87 87 S 6 9 30.19 1022 10 16 0.00 0.00
3:53 am 03:53 Mostly Clear 68 20 65 18.3 90 90 S 6 9 30.20 1023 10 16 0.00 0.00
4:13 am 04:13 Mostly Cloudy 68 20 65 18.3 90 90 SSW 7 11 30.20 1023 10 16 0.00 0.00
4:53 am 04:53 Cloudy 69 20.6 65 18.3 87 87 SSW 8 13 30.21 1023 10 16 0.00 0.00
5:42 am 05:42 Cloudy 69 20.6 65 18.3 87 87 SSW 7 11 30.21 1023 10 16 0.00 0.00
5:53 am 05:53 Cloudy 69 20.6 65 18.3 87 87 SSW 8 13 30.21 1023 10 16 0.00 0.00
6:53 am 06:53 Cloudy 70 21.1 65 18.3 84 84 SSW 10 17 30.22 1023 10 16 0.00 0.00
7:39 am 07:39 Cloudy 70 21.1 65 18.3 84 84 SSW 9 15 30.20 1023 10 16 0.00 0.00
7:51 am 07:51 Cloudy 70 21 64 18 83 83 S 10 17 30.20 1023 10 16 0.00 0.00
7:53 am 07:53 Cloudy 70 21.1 65 18.3 84 84 SSW 10 17 30.22 1023 10 16 0.00 0.00
8:53 am 08:53 Cloudy 72 22.2 65 18.3 79 79 SSW 9 15 30.21 1023 10 16 0.00 0.00
9:53 am 09:53 Mostly Cloudy 75 23.9 65 18.3 71 71 SSW 12 19 30.20 1023 10 16 0.00 0.00
10:53 am 10:53 Mostly Cloudy 77 25 66 18.9 69 69 SW 9 15 30.19 1022 10 16 0.00 0.00
11:46 am 11:46 Mostly Cloudy 78 25.6 66 18.9 67 67 SSW 9 15 30.16 1021 10 16 0.00 0.00
11:53 am 11:53 Mostly Cloudy 79 26.1 65 18.3 62 62 SW 12 19 30.19 1022 10 16 0.00 0.00
12:53 pm 12:53 Mostly Cloudy 81 27.2 65 18.3 58 58 SW 10 17 30.17 1022 10 16 0.00 0.00
1:53 pm 13:53 Mostly Cloudy 81 27.2 65 18.3 58 58 S 14 22 30.17 1022 10 16 0.00 0.00
2:53 pm 14:53 Mostly Cloudy 83 28.3 65 18.3 55 55 SSW 14 22 30.15 1021 10 16 0.00 0.00
3:53 pm 15:53 Mostly Cloudy 83 28.3 65 18.3 55 55 SSW 15 24 30.14 1021 10 16 0.00 0.00
4:53 pm 16:53 Mostly Cloudy 82 27.8 65 18.3 56 56 SSW 13 20 30.13 1020 10 16 0.00 0.00
5:53 pm 17:53 Partly Cloudy 82 27.8 65 18.3 56 56 SSW 12 19 30.12 1020 10 16 0.00 0.00
6:53 pm 18:53 Partly Cloudy 82 27.8 65 18.3 56 56 SSW 10 17 30.12 1020 10 16 0.00 0.00
7:53 pm 19:53 Partly Cloudy 80 26.7 65 18.3 60 60 S 9 15 30.11 1020 10 16 0.00 0.00
8:53 pm 20:53 Partly Cloudy 79 26.1 65 18.3 62 62 S 9 15 30.10 1019 10 16 0.00 0.00
9:53 pm 21:53 Partly Cloudy 77 25 66 18.9 69 69 S 9 15 30.11 1020 10 16 0.00 0.00
10:53 pm 22:53 Partly Cloudy 76 24.4 66 18.9 72 72 S 9 15 30.11 1020 10 16 0.00 0.00
11:53 pm 23:53 Mostly Cloudy 75 23.9 66 18.9 74 74 S 6 9 30.13 1020 10 16 0.00 0.00

Powered by AerisWeather